This is the latest recevied weather packets stored in our database for station/object KB3HLL. If no packets are shown the sender has not sent any weather packets the latest 10 day(s).
| Time | Temp. | Humidity | Pressure | Rain* | Wind** | Luminosity | Snow |
|---|---|---|---|---|---|---|---|
| 1777919477 | 18.89° C | 51% | 1011.3 hPa | 0 mm | - | 360 W/m² | - |
| 1777919180 | 19.44° C | 50% | 1011.4 hPa | 0 mm | - | 1036 W/m² | - |
| 1777918878 | 19.44° C | 50% | 1011.4 hPa | 0 mm | - | 978 W/m² | - |
| 1777918578 | 19.44° C | 50% | 1011.6 hPa | 0 mm | - | 1083 W/m² | - |
| 1777918278 | 18.89° C | 50% | 1011.4 hPa | 0 mm | - | 1070 W/m² | - |
| 1777917978 | 18.33° C | 52% | 1011.6 hPa | 0 mm | - | 1029 W/m² | - |
| 1777917678 | 18.33° C | 52% | 1011.8 hPa | 0 mm | - | 217 W/m² | - |
| 1777917378 | 18.89° C | 51% | 1011.7 hPa | 0 mm | - | 586 W/m² | - |
| 1777917078 | 18.89° C | 51% | 1011.8 hPa | 0 mm | - | 1202 W/m² | - |
| 1777916777 | 18.89° C | 51% | 1011.8 hPa | 0 mm | - | 703 W/m² | - |
| 1777916478 | 18.33° C | 51% | 1011.9 hPa | 0 mm | - | 1108 W/m² | - |
| 1777916178 | 17.78° C | 53% | 1011.9 hPa | 0 mm | - | 1139 W/m² | - |
| 1777915878 | 17.78° C | 54% | 1012 hPa | 0 mm | - | 632 W/m² | - |
| 1777915578 | 17.78° C | 53% | 1012 hPa | 0 mm | - | 1144 W/m² | - |
| 1777915278 | 17.78° C | 54% | 1012 hPa | 0 mm | - | 1193 W/m² | - |
| 1777914981 | 17.78° C | 53% | 1012.1 hPa | 0 mm | - | 1122 W/m² | - |
| 1777914678 | 17.22° C | 54% | 1012.2 hPa | 0 mm | - | 1150 W/m² | - |
| 1777914378 | 16.67° C | 55% | 1012.2 hPa | 0 mm | - | 531 W/m² | - |
| 1777914078 | 16.67° C | 55% | 1012.2 hPa | 0 mm | - | 510 W/m² | - |
| 1777913779 | 16.67° C | 55% | 1012.2 hPa | 0 mm | - | 974 W/m² | - |
| 1777913478 | 16.67° C | 56% | 1012.2 hPa | 0 mm | - | 1018 W/m² | - |
| 1777913177 | 16.11° C | 56% | 1012.1 hPa | 0 mm | - | 1069 W/m² | - |
| 1777912878 | 16.11° C | 55% | 1012.3 hPa | 0 mm | - | 383 W/m² | - |
| 1777912578 | 16.11° C | 56% | 1012.3 hPa | 0 mm | - | 277 W/m² | - |
| 1777912278 | 16.11° C | 55% | 1012.3 hPa | 0 mm | - | 1088 W/m² | - |
* Rain latest hour (hover to see other rain measurements)
** Current wind speed in m/s (hover to see current wind gust speed)